{"data":{"norad_id":47767,"epoch":"2026-09-20T03:41:42.715104Z","epoch_age_seconds":55660,"freshness":"FRESH","line1":"1 47767U 21017AX  26263.15396661  .00462724  10595-3  79246-3 0  9997","line2":"2 47767  53.1413 336.5046 0011668 354.4137   5.6762 16.01804837308270","mean_motion":16.01804837,"eccentricity":0.0011668,"inclination_deg":53.1413,"raan_deg":336.5046,"arg_perigee_deg":354.4137,"mean_anomaly_deg":5.6762,"bstar":0.00079246,"rev_number":30827,"period_min":89.898592308971,"perigee_km":261.66420474235,"apogee_km":277.17694509919,"semimajor_km":6647.5575749208,"source":"CELESTRAK","updated_at":"2026-09-20T09:00:38.602535Z"}}